FCN587 SPZO-SKSP

Flight info

Callsign FCN587
Flight time 4h 2m
Altitude 32000
Route GAXUN DCT PUL UP408 VUKOK/N0466F340 UP408 QIT UM674 TBG UM419 AROVI DCT BIXOX BIXOX2C
Aircraft A321/M-SDE3FGHIRWY/LB1

Departure

Time 2026-05-05 21:57
Airport Alejandro Velasco Astete International Airport (SPZO)

Arrival

Time 2026-05-06 01:59
Airport Gustavo Rojas Pinilla International Airport (SKSP)
Time Latitude Longitude Altitude Speed Heading
2026-05-05 21:38 -13.53772 -71.94322 10792 ft 0 kts 272°
2026-05-05 21:46 -13.53772 -71.94321 10791 ft 0 kts 272°
2026-05-05 21:48 -13.53773 -71.94318 10791 ft 3 kts 271°
2026-05-05 21:48 -13.53771 -71.94291 10792 ft 4 kts 252°
2026-05-05 21:48 -13.53759 -71.94267 10794 ft 4 kts 225°
2026-05-05 21:48 -13.53737 -71.94252 10795 ft 4 kts 201°
2026-05-05 21:49 -13.53711 -71.94244 10791 ft 4 kts 189°
2026-05-05 21:49 -13.53685 -71.94239 10796 ft 4 kts 207°
2026-05-05 21:49 -13.53674 -71.94230 10798 ft 3 kts 272°
2026-05-05 21:49 -13.53676 -71.94243 10794 ft 0 kts 256°
2026-05-05 21:51 -13.53675 -71.94244 10793 ft 1 kts 261°
2026-05-05 21:52 -13.53675 -71.94288 10792 ft 0 kts 271°
2026-05-05 21:52 -13.53675 -71.94296 10795 ft 4 kts 273°
2026-05-05 21:52 -13.53668 -71.94341 10793 ft 9 kts 280°
2026-05-05 21:53 -13.53656 -71.94423 10800 ft 14 kts 277°
2026-05-05 21:53 -13.53644 -71.94536 10804 ft 18 kts 276°
2026-05-05 21:53 -13.53630 -71.94682 10812 ft 23 kts 276°
2026-05-05 21:53 -13.53613 -71.94851 10820 ft 18 kts 276°
2026-05-05 21:54 -13.53599 -71.94992 10826 ft 22 kts 276°
2026-05-05 21:54 -13.53581 -71.95163 10837 ft 26 kts 276°
2026-05-05 21:54 -13.53566 -71.95319 10844 ft 22 kts 276°
2026-05-05 21:54 -13.53535 -71.95467 10861 ft 17 kts 324°
2026-05-05 21:55 -13.53429 -71.95429 10859 ft 17 kts 51°
2026-05-05 21:55 -13.53422 -71.95357 10847 ft 0 kts 95°
2026-05-05 21:55 -13.53438 -71.95202 10841 ft 51 kts 96°
2026-05-05 21:56 -13.53495 -71.94654 10813 ft 102 kts 96°
2026-05-05 21:56 -13.53585 -71.93780 10764 ft 145 kts 96°
2026-05-05 21:56 -13.53701 -71.92622 10707 ft 180 kts 96°
2026-05-05 21:56 -13.53796 -71.91259 10851 ft 191 kts 92°
2026-05-05 21:57 -13.53922 -71.89938 11346 ft 187 kts 95°
2026-05-05 21:57 -13.54256 -71.88613 11595 ft 195 kts 114°
2026-05-05 21:57 -13.54845 -71.87357 11865 ft 197 kts 116°
2026-05-05 21:57 -13.55452 -71.86097 12309 ft 194 kts 109°
2026-05-05 21:58 -13.55902 -71.84782 12814 ft 201 kts 107°
2026-05-05 21:58 -13.56383 -71.83374 12958 ft 215 kts 108°
2026-05-05 21:58 -13.56898 -71.81909 13210 ft 221 kts 108°
2026-05-05 21:58 -13.57468 -71.80410 13491 ft 229 kts 111°
2026-05-05 21:59 -13.58080 -71.78869 13574 ft 237 kts 110°
2026-05-05 21:59 -13.58510 -71.77224 13636 ft 244 kts 94°
2026-05-05 21:59 -13.58547 -71.75465 13702 ft 252 kts 83°
2026-05-05 21:59 -13.58219 -71.73656 13760 ft 263 kts 71°
2026-05-05 22:00 -13.57503 -71.71882 13790 ft 278 kts 59°
2026-05-05 22:00 -13.56378 -71.70244 13890 ft 291 kts 46°
2026-05-05 22:00 -13.54831 -71.68861 14287 ft 298 kts 32°
2026-05-05 22:00 -13.52982 -71.67897 14834 ft 301 kts 18°
2026-05-05 22:01 -13.50975 -71.67239 15407 ft 302 kts 18°
2026-05-05 22:01 -13.48947 -71.66637 15983 ft 304 kts 13°
2026-05-05 22:01 -13.46836 -71.66352 16433 ft 309 kts
2026-05-05 22:01 -13.44677 -71.66503 16776 ft 314 kts 351°
2026-05-05 22:02 -13.42562 -71.67121 17106 ft 318 kts 339°
2026-05-05 22:02 -13.40594 -71.68177 17447 ft 322 kts 327°
2026-05-05 22:02 -13.38845 -71.69639 17776 ft 327 kts 315°
2026-05-05 22:02 -13.37404 -71.71460 18118 ft 331 kts 303°
2026-05-05 22:03 -13.36350 -71.73569 18471 ft 334 kts 290°
2026-05-05 22:03 -13.35703 -71.75867 18700 ft 335 kts 284°
2026-05-05 22:03 -13.35141 -71.78193 18984 ft 338 kts 284°
2026-05-05 22:03 -13.34567 -71.80506 19324 ft 338 kts 285°
2026-05-05 22:04 -13.33977 -71.82853 19635 ft 340 kts 285°
2026-05-05 22:04 -13.33387 -71.85204 19957 ft 341 kts 285°
2026-05-05 22:04 -13.32794 -71.87569 20231 ft 344 kts 285°
2026-05-05 22:04 -13.32198 -71.89948 20550 ft 345 kts 285°
2026-05-05 22:05 -13.31601 -71.92344 20846 ft 347 kts 286°
2026-05-05 22:05 -13.31002 -71.94753 21108 ft 349 kts 286°
2026-05-05 22:05 -13.30401 -71.97174 21434 ft 351 kts 285°
2026-05-05 22:05 -13.29797 -71.99606 21669 ft 353 kts 286°
2026-05-05 22:06 -13.29190 -72.02049 21913 ft 354 kts 285°
2026-05-05 22:06 -13.28589 -72.04468 22166 ft 354 kts 285°
2026-05-05 22:06 -13.27979 -72.06921 22438 ft 355 kts 286°
2026-05-05 22:06 -13.27365 -72.09389 22674 ft 358 kts 285°
2026-05-05 22:07 -13.26744 -72.11872 22939 ft 360 kts 286°
2026-05-05 22:07 -13.26119 -72.14363 23204 ft 362 kts 286°
2026-05-05 22:07 -13.25494 -72.16862 23471 ft 363 kts 287°
2026-05-05 22:07 -13.24865 -72.19379 23723 ft 364 kts 286°
2026-05-05 22:08 -13.24233 -72.21903 23946 ft 366 kts 286°
2026-05-05 22:08 -13.23597 -72.24437 24176 ft 367 kts 286°
2026-05-05 22:08 -13.22961 -72.26977 24429 ft 367 kts 286°
2026-05-05 22:08 -13.22326 -72.29517 24681 ft 367 kts 286°
2026-05-05 22:09 -13.21701 -72.32024 24933 ft 368 kts 286°
2026-05-05 22:09 -13.21066 -72.34569 25125 ft 369 kts 286°
2026-05-05 22:09 -13.20426 -72.37121 25334 ft 370 kts 286°
2026-05-05 22:09 -13.19784 -72.39679 25508 ft 371 kts 286°
2026-05-05 22:10 -13.19141 -72.42241 25763 ft 371 kts 286°
2026-05-05 22:10 -13.18499 -72.44808 25984 ft 372 kts 286°
2026-05-05 22:10 -13.17854 -72.47387 26189 ft 374 kts 286°
2026-05-05 22:10 -13.17204 -72.49972 26420 ft 374 kts 287°
2026-05-05 22:11 -13.16551 -72.52556 26660 ft 375 kts 287°
2026-05-05 22:11 -13.15897 -72.55153 26904 ft 376 kts 286°
2026-05-05 22:11 -13.15246 -72.57755 27102 ft 377 kts 287°
2026-05-05 22:11 -13.14600 -72.60331 27306 ft 379 kts 287°
2026-05-05 22:12 -13.13941 -72.62954 27552 ft 379 kts 286°
2026-05-05 22:12 -13.13281 -72.65569 27768 ft 379 kts 286°
2026-05-05 22:12 -13.12617 -72.68194 27967 ft 380 kts 287°
2026-05-05 22:12 -13.11929 -72.70814 28147 ft 381 kts 290°
2026-05-05 22:13 -13.10928 -72.73325 28323 ft 380 kts 299°
2026-05-05 22:13 -13.09557 -72.75635 28515 ft 380 kts 308°
2026-05-05 22:13 -13.07849 -72.77694 28698 ft 379 kts 317°
2026-05-05 22:13 -13.05856 -72.79461 28893 ft 379 kts 325°
2026-05-05 22:14 -13.03625 -72.80892 29057 ft 379 kts 334°
2026-05-05 22:14 -13.01213 -72.81964 29220 ft 379 kts 340°
2026-05-05 22:14 -12.98770 -72.82902 29379 ft 380 kts 340°
2026-05-05 22:14 -12.96291 -72.83855 29519 ft 382 kts 340°
2026-05-05 22:15 -12.93798 -72.84814 29689 ft 383 kts 340°
2026-05-05 22:15 -12.91299 -72.85774 29813 ft 384 kts 340°
2026-05-05 22:15 -12.88799 -72.86733 30002 ft 384 kts 340°
2026-05-05 22:15 -12.86289 -72.87695 30176 ft 385 kts 340°
2026-05-05 22:16 -12.83778 -72.88659 30326 ft 386 kts 340°
2026-05-05 22:16 -12.81268 -72.89622 30463 ft 386 kts 340°
2026-05-05 22:16 -12.78749 -72.90590 30603 ft 388 kts 340°
2026-05-05 22:17 -12.73678 -72.92539 30823 ft 390 kts 340°
2026-05-05 22:17 -12.71139 -72.93517 30955 ft 390 kts 340°
2026-05-05 22:17 -12.68631 -72.94482 31070 ft 391 kts 340°
2026-05-05 22:17 -12.66082 -72.95459 31217 ft 392 kts 340°
2026-05-05 22:18 -12.63525 -72.96439 31332 ft 392 kts 340°
2026-05-05 22:18 -12.60972 -72.97417 31463 ft 393 kts 340°
2026-05-05 22:18 -12.58406 -72.98401 31582 ft 394 kts 340°
2026-05-05 22:18 -12.55836 -72.99386 31697 ft 395 kts 340°
2026-05-05 22:19 -12.53266 -73.00370 31820 ft 395 kts 340°
2026-05-05 22:19 -12.50689 -73.01356 31942 ft 395 kts 341°
2026-05-05 22:19 -12.48104 -73.02343 32014 ft 398 kts 341°
2026-05-05 22:20 -12.42868 -73.04344 32036 ft 406 kts 341°
2026-05-05 22:20 -12.37554 -73.06379 32036 ft 415 kts 340°
2026-05-05 22:21 -12.32083 -73.08468 32019 ft 425 kts 340°
2026-05-05 22:21 -12.26484 -73.10617 32049 ft 434 kts 340°
2026-05-05 22:22 -12.20785 -73.12801 32029 ft 441 kts 341°
2026-05-05 22:22 -12.14993 -73.15011 32029 ft 445 kts 340°
2026-05-05 22:23 -12.09202 -73.17225 32005 ft 445 kts 340°
2026-05-05 22:23 -12.03446 -73.19422 32006 ft 444 kts 341°
2026-05-05 22:24 -11.97651 -73.21629 32009 ft 445 kts 341°
2026-05-05 22:24 -11.91852 -73.23841 32023 ft 445 kts 340°
2026-05-05 22:25 -11.86060 -73.26049 32027 ft 445 kts 341°
2026-05-05 22:25 -11.80245 -73.28259 32005 ft 446 kts 341°
2026-05-05 22:26 -11.74439 -73.30470 32008 ft 446 kts 341°
2026-05-05 22:26 -11.68668 -73.32668 31990 ft 446 kts 341°
2026-05-05 22:27 -11.62858 -73.34882 31990 ft 446 kts 341°
2026-05-05 22:27 -11.57048 -73.37092 31989 ft 445 kts 341°
2026-05-05 22:28 -11.51249 -73.39301 32000 ft 445 kts 341°
2026-05-05 22:28 -11.45457 -73.41506 31999 ft 444 kts 341°
2026-05-05 22:29 -11.39664 -73.43707 31970 ft 444 kts 341°
2026-05-05 22:29 -11.33874 -73.45900 31967 ft 444 kts 341°
2026-05-05 22:30 -11.28129 -73.48073 31963 ft 443 kts 341°
2026-05-05 22:30 -11.22349 -73.50269 31930 ft 443 kts 341°
2026-05-05 22:31 -11.16571 -73.52465 31955 ft 444 kts 341°
2026-05-05 22:31 -11.10783 -73.54656 31931 ft 444 kts 341°
2026-05-05 22:32 -11.04997 -73.56848 31932 ft 444 kts 341°
2026-05-05 22:32 -10.99213 -73.59034 31931 ft 444 kts 341°
2026-05-05 22:33 -10.93465 -73.61209 31933 ft 444 kts 341°
2026-05-05 22:33 -10.87676 -73.63400 31933 ft 444 kts 341°
2026-05-05 22:34 -10.81889 -73.65587 31941 ft 444 kts 341°
2026-05-05 22:34 -10.76100 -73.67780 31944 ft 444 kts 341°
2026-05-05 22:35 -10.70311 -73.69969 31931 ft 444 kts 341°
2026-05-05 22:35 -10.64519 -73.72158 31931 ft 444 kts 341°
2026-05-05 22:36 -10.58769 -73.74331 31931 ft 444 kts 341°
2026-05-05 22:36 -10.52983 -73.76512 31923 ft 444 kts 341°
2026-05-05 22:37 -10.47197 -73.78698 31917 ft 443 kts 341°
2026-05-05 22:37 -10.41410 -73.80876 31924 ft 444 kts 341°
2026-05-05 22:38 -10.35620 -73.83057 31924 ft 444 kts 341°
2026-05-05 22:38 -10.29830 -73.85246 31916 ft 444 kts 341°
2026-05-05 22:39 -10.24041 -73.87431 31919 ft 444 kts 341°
2026-05-05 22:40 -10.12128 -73.91901 31914 ft 445 kts 341°
2026-05-05 22:40 -10.06331 -73.94082 31935 ft 445 kts 341°
2026-05-05 22:41 -10.00565 -73.96258 31929 ft 445 kts 341°
2026-05-05 22:41 -9.94766 -73.98436 31929 ft 445 kts 341°
2026-05-05 22:42 -9.88964 -74.00619 31927 ft 444 kts 341°
2026-05-05 22:42 -9.83172 -74.02798 31914 ft 444 kts 341°
2026-05-05 22:43 -9.78354 -74.04604 31907 ft 444 kts 341°
2026-05-05 22:43 -9.72564 -74.06779 31895 ft 444 kts 341°
2026-05-05 22:44 -9.65823 -74.09310 31904 ft 445 kts 341°
2026-05-05 22:44 -9.60960 -74.11131 31907 ft 445 kts 341°
2026-05-05 22:45 -9.55164 -74.13306 31906 ft 445 kts 341°
2026-05-05 22:45 -9.49393 -74.15468 31904 ft 445 kts 341°
2026-05-05 22:46 -9.43591 -74.17644 31897 ft 445 kts 341°
2026-05-05 22:46 -9.37784 -74.19822 31893 ft 445 kts 341°
2026-05-05 22:47 -9.31970 -74.21994 31905 ft 445 kts 341°
2026-05-05 22:47 -9.26155 -74.24173 31902 ft 446 kts 341°
2026-05-05 22:48 -9.20345 -74.26349 31895 ft 446 kts 341°
2026-05-05 22:48 -9.14525 -74.28525 31898 ft 446 kts 341°
2026-05-05 22:49 -9.08748 -74.30686 31895 ft 446 kts 341°
2026-05-05 22:49 -9.02930 -74.32861 31897 ft 446 kts 341°
2026-05-05 22:50 -8.97108 -74.35037 31891 ft 446 kts 341°
2026-05-05 22:50 -8.91279 -74.37209 31890 ft 446 kts 341°
2026-05-05 22:51 -8.85461 -74.39385 31891 ft 446 kts 341°
2026-05-05 22:51 -8.79646 -74.41559 31892 ft 446 kts 341°
2026-05-05 22:52 -8.73825 -74.43729 31890 ft 446 kts 342°
2026-05-05 22:52 -8.68008 -74.45895 31890 ft 446 kts 342°
2026-05-05 22:53 -8.62225 -74.48047 31885 ft 446 kts 342°
2026-05-05 22:53 -8.56409 -74.50220 31884 ft 446 kts 342°
2026-05-05 22:54 -8.50590 -74.52392 31882 ft 446 kts 342°
2026-05-05 22:54 -8.44765 -74.54560 31885 ft 446 kts 342°
2026-05-05 22:55 -8.38948 -74.56732 31875 ft 446 kts 341°
2026-05-05 22:55 -8.33381 -74.59551 31873 ft 449 kts 334°
2026-05-05 22:56 -8.27897 -74.62581 31873 ft 449 kts 334°
2026-05-05 22:56 -8.22444 -74.65585 31872 ft 450 kts 334°
2026-05-05 22:57 -8.16954 -74.68607 31879 ft 450 kts 334°
2026-05-05 22:57 -8.11459 -74.71640 31879 ft 450 kts 334°
2026-05-05 22:58 -8.05968 -74.74669 31889 ft 450 kts 334°
2026-05-05 22:58 -8.00462 -74.77696 31882 ft 450 kts 334°
2026-05-05 22:59 -7.94963 -74.80724 31884 ft 451 kts 334°
2026-05-05 22:59 -7.89490 -74.83734 31885 ft 451 kts 334°
2026-05-05 23:00 -7.81221 -74.88281 31879 ft 451 kts 334°
2026-05-05 23:00 -7.75704 -74.91314 31893 ft 451 kts 334°
2026-05-05 23:01 -7.70195 -74.94347 31891 ft 451 kts 334°
2026-05-05 23:01 -7.64675 -74.97377 31892 ft 452 kts 334°
2026-05-05 23:02 -7.59198 -75.00390 31896 ft 452 kts 334°
2026-05-05 23:02 -7.53681 -75.03420 31896 ft 452 kts 334°
2026-05-05 23:03 -7.48162 -75.06449 31900 ft 452 kts 334°
2026-05-05 23:03 -7.42642 -75.09479 31896 ft 452 kts 334°
2026-05-05 23:04 -7.37124 -75.12506 31895 ft 452 kts 334°
2026-05-05 23:04 -7.31638 -75.15515 31902 ft 452 kts 334°
2026-05-05 23:05 -7.26118 -75.18541 31897 ft 452 kts 334°
2026-05-05 23:05 -7.20589 -75.21574 31899 ft 452 kts 334°
2026-05-05 23:06 -7.15058 -75.24602 31905 ft 453 kts 334°
2026-05-05 23:06 -7.09529 -75.27636 31901 ft 452 kts 334°
2026-05-05 23:07 -7.04042 -75.30645 31908 ft 452 kts 334°
2026-05-05 23:07 -6.98516 -75.33667 31900 ft 452 kts 334°
2026-05-05 23:08 -6.92982 -75.36694 31898 ft 453 kts 334°
2026-05-05 23:08 -6.87439 -75.39733 31897 ft 454 kts 334°
2026-05-05 23:09 -6.81889 -75.42767 31911 ft 454 kts 334°
2026-05-05 23:09 -6.76330 -75.45805 31914 ft 455 kts 334°
2026-05-05 23:10 -6.70813 -75.48828 31911 ft 455 kts 334°
2026-05-05 23:10 -6.65250 -75.51872 31937 ft 455 kts 334°
2026-05-05 23:11 -6.59682 -75.54917 31907 ft 456 kts 334°
2026-05-05 23:11 -6.54106 -75.57962 31912 ft 457 kts 334°
2026-05-05 23:12 -6.48522 -75.61013 31914 ft 457 kts 334°
2026-05-05 23:12 -6.42970 -75.64048 31916 ft 457 kts 334°
2026-05-05 23:13 -6.37378 -75.67096 31923 ft 457 kts 334°
2026-05-05 23:13 -6.31784 -75.70151 31917 ft 457 kts 334°
2026-05-05 23:14 -6.26195 -75.73206 31921 ft 457 kts 334°
2026-05-05 23:14 -6.20605 -75.76258 31908 ft 457 kts 334°
2026-05-05 23:15 -6.15007 -75.79310 31905 ft 458 kts 334°
2026-05-05 23:15 -6.09414 -75.82361 31908 ft 458 kts 334°
2026-05-05 23:16 -6.03816 -75.85413 31915 ft 458 kts 334°
2026-05-05 23:16 -5.98207 -75.88466 31914 ft 458 kts 334°
2026-05-05 23:17 -5.92644 -75.91505 31912 ft 458 kts 334°
2026-05-05 23:17 -5.87047 -75.94560 31901 ft 458 kts 334°
2026-05-05 23:18 -5.81446 -75.97610 31897 ft 458 kts 334°
2026-05-05 23:18 -5.75842 -76.00664 31901 ft 458 kts 334°
2026-05-05 23:19 -5.70234 -76.03720 31903 ft 458 kts 334°
2026-05-05 23:19 -5.64625 -76.06769 31915 ft 458 kts 334°
2026-05-05 23:20 -5.59017 -76.09822 31913 ft 458 kts 334°
2026-05-05 23:20 -5.53409 -76.12871 31903 ft 459 kts 334°
2026-05-05 23:21 -5.47837 -76.15904 31916 ft 459 kts 334°
2026-05-05 23:21 -5.42231 -76.18953 31916 ft 459 kts 334°
2026-05-05 23:22 -5.36616 -76.22005 31919 ft 459 kts 334°
2026-05-05 23:22 -5.30972 -76.24979 31921 ft 458 kts 337°
2026-05-05 23:23 -5.25209 -76.27695 31923 ft 457 kts 338°
2026-05-05 23:23 -5.19420 -76.30339 31923 ft 457 kts 338°
2026-05-05 23:24 -5.13657 -76.33045 31916 ft 458 kts 338°
2026-05-05 23:24 -5.07906 -76.35795 31923 ft 458 kts 337°
2026-05-05 23:25 -5.02185 -76.38527 31919 ft 458 kts 338°
2026-05-05 23:25 -4.96423 -76.41266 31919 ft 458 kts 338°
2026-05-05 23:26 -4.90657 -76.44003 31923 ft 458 kts 338°
2026-05-05 23:26 -4.84898 -76.46736 31926 ft 458 kts 338°
2026-05-05 23:27 -4.79130 -76.49467 31924 ft 458 kts 338°
2026-05-05 23:27 -4.73399 -76.52187 31929 ft 459 kts 338°
2026-05-05 23:28 -4.67629 -76.54927 31932 ft 459 kts 337°
2026-05-05 23:28 -4.61867 -76.57670 31932 ft 459 kts 337°
2026-05-05 23:29 -4.56095 -76.60405 31934 ft 459 kts 338°
2026-05-05 23:29 -4.50322 -76.63131 31936 ft 459 kts 338°
2026-05-05 23:30 -4.44546 -76.65868 31936 ft 459 kts 337°
2026-05-05 23:30 -4.38812 -76.68582 31934 ft 459 kts 337°
2026-05-05 23:31 -4.33041 -76.71321 31933 ft 459 kts 337°
2026-05-05 23:31 -4.27256 -76.74064 31935 ft 460 kts 337°
2026-05-05 23:32 -4.21479 -76.76804 31938 ft 460 kts 337°
2026-05-05 23:32 -4.15732 -76.79524 31936 ft 460 kts 337°
2026-05-05 23:33 -4.09952 -76.82257 31936 ft 460 kts 337°
2026-05-05 23:33 -4.04169 -76.84992 31936 ft 460 kts 337°
2026-05-05 23:34 -3.98392 -76.87733 31942 ft 459 kts 337°
2026-05-05 23:34 -3.92612 -76.90469 31943 ft 459 kts 337°
2026-05-05 23:35 -3.86842 -76.93197 31945 ft 459 kts 338°
2026-05-05 23:35 -3.81104 -76.95908 31945 ft 459 kts 337°
2026-05-05 23:36 -3.75338 -76.98638 31940 ft 458 kts 337°
2026-05-05 23:36 -3.69573 -77.01371 31926 ft 459 kts 338°
2026-05-05 23:37 -3.63804 -77.04096 31926 ft 459 kts 338°
2026-05-05 23:37 -3.58021 -77.06820 31924 ft 459 kts 338°
2026-05-05 23:38 -3.52281 -77.09537 31941 ft 459 kts 337°
2026-05-05 23:38 -3.46507 -77.12277 31943 ft 459 kts 338°
2026-05-05 23:39 -3.40729 -77.15012 31945 ft 459 kts 338°
2026-05-05 23:39 -3.34944 -77.17741 31944 ft 459 kts 338°
2026-05-05 23:40 -3.29163 -77.20466 31932 ft 460 kts 337°
2026-05-05 23:40 -3.23376 -77.23207 31944 ft 460 kts 337°
2026-05-05 23:41 -3.17590 -77.25943 31945 ft 460 kts 337°
2026-05-05 23:41 -3.11806 -77.28675 31949 ft 460 kts 337°
2026-05-05 23:42 -3.06055 -77.31390 31950 ft 460 kts 337°
2026-05-05 23:42 -3.00272 -77.34125 31952 ft 460 kts 337°
2026-05-05 23:43 -2.94483 -77.36862 31953 ft 460 kts 336°
2026-05-05 23:43 -2.88704 -77.39586 31953 ft 459 kts 336°
2026-05-05 23:44 -2.82931 -77.42307 31959 ft 458 kts 336°
2026-05-05 23:44 -2.77169 -77.45029 31957 ft 458 kts 336°
2026-05-05 23:45 -2.71404 -77.47758 31957 ft 458 kts 336°
2026-05-05 23:45 -2.65639 -77.50488 31963 ft 458 kts 336°
2026-05-05 23:46 -2.59917 -77.53188 31974 ft 458 kts 336°
2026-05-05 23:46 -2.54164 -77.55899 31975 ft 457 kts 336°
2026-05-05 23:47 -2.48407 -77.58621 31973 ft 457 kts 336°
2026-05-05 23:47 -2.42661 -77.61335 31985 ft 456 kts 336°
2026-05-05 23:48 -2.36927 -77.64051 31990 ft 455 kts 336°
2026-05-05 23:48 -2.31203 -77.66757 32001 ft 455 kts 336°
2026-05-05 23:49 -2.25474 -77.69461 32001 ft 455 kts 336°
2026-05-05 23:49 -2.19750 -77.72165 31990 ft 455 kts 336°
2026-05-05 23:50 -2.14016 -77.74870 31995 ft 456 kts 336°
2026-05-05 23:50 -2.08277 -77.77580 31983 ft 456 kts 336°
2026-05-05 23:51 -2.02569 -77.80283 31993 ft 457 kts 336°
2026-05-05 23:51 -1.96822 -77.82999 32024 ft 457 kts 336°
2026-05-05 23:52 -1.91068 -77.85711 32028 ft 457 kts 336°
2026-05-05 23:52 -1.85323 -77.88424 32013 ft 457 kts 337°
2026-05-05 23:53 -1.79570 -77.91144 32022 ft 457 kts 337°
2026-05-05 23:53 -1.73853 -77.93841 32032 ft 458 kts 337°
2026-05-05 23:54 -1.68087 -77.96551 32076 ft 458 kts 337°
2026-05-05 23:54 -1.62332 -77.99270 32085 ft 458 kts 337°
2026-05-05 23:55 -1.56574 -78.01992 32092 ft 457 kts 337°
2026-05-05 23:55 -1.50780 -78.04597 32087 ft 455 kts 344°
2026-05-05 23:56 -1.44748 -78.06501 32089 ft 455 kts 345°
2026-05-05 23:56 -1.38755 -78.08396 32096 ft 455 kts 345°
2026-05-05 23:57 -1.32717 -78.10312 32127 ft 455 kts 344°
2026-05-05 23:57 -1.26684 -78.12230 32171 ft 455 kts 345°
2026-05-05 23:58 -1.20646 -78.14135 32168 ft 455 kts 345°
2026-05-05 23:58 -1.14617 -78.16040 32206 ft 455 kts 344°
2026-05-05 23:59 -1.08626 -78.17936 32195 ft 455 kts 345°
2026-05-05 23:59 -1.02588 -78.19848 32234 ft 455 kts 345°
2026-05-06 00:00 -0.96548 -78.21758 32237 ft 456 kts 345°
2026-05-06 00:00 -0.90505 -78.23675 32236 ft 456 kts 345°
2026-05-06 00:01 -0.84456 -78.25601 32280 ft 456 kts 345°
2026-05-06 00:01 -0.78446 -78.27505 32284 ft 456 kts 345°
2026-05-06 00:02 -0.72398 -78.29419 32299 ft 456 kts 345°
2026-05-06 00:02 -0.66336 -78.31334 32292 ft 457 kts 345°
2026-05-06 00:03 -0.60268 -78.33255 32292 ft 458 kts 345°
2026-05-06 00:03 -0.54194 -78.35178 32299 ft 458 kts 345°
2026-05-06 00:04 -0.49139 -78.36777 32304 ft 458 kts 345°
2026-05-06 00:04 -0.43064 -78.38700 32305 ft 458 kts 345°
2026-05-06 00:05 -0.32966 -78.41901 32276 ft 458 kts 345°
2026-05-06 00:06 -0.27919 -78.43508 32247 ft 458 kts 345°
2026-05-06 00:06 -0.21840 -78.45430 32247 ft 458 kts 345°
2026-05-06 00:07 -0.14734 -78.47666 32253 ft 458 kts 345°
2026-05-06 00:07 -0.09685 -78.49262 32252 ft 458 kts 345°
2026-05-06 00:08 -0.03588 -78.51092 32249 ft 456 kts 351°
2026-05-06 00:08 0.02675 -78.51972 32225 ft 455 kts 355°
2026-05-06 00:09 0.08960 -78.52768 32222 ft 456 kts 355°
2026-05-06 00:09 0.15206 -78.53558 32194 ft 456 kts 355°
2026-05-06 00:10 0.21500 -78.54357 32213 ft 456 kts 355°
2026-05-06 00:10 0.27801 -78.55161 32216 ft 456 kts 356°
2026-05-06 00:11 0.34094 -78.55967 32205 ft 457 kts 355°
2026-05-06 00:11 0.40398 -78.56782 32202 ft 457 kts 355°
2026-05-06 00:12 0.46706 -78.57593 32177 ft 457 kts 355°
2026-05-06 00:12 0.53015 -78.58400 32179 ft 457 kts 355°
2026-05-06 00:13 0.59279 -78.59213 32177 ft 457 kts 355°
2026-05-06 00:13 0.65589 -78.60036 32149 ft 457 kts 355°
2026-05-06 00:14 0.71895 -78.60859 32154 ft 457 kts 355°
2026-05-06 00:14 0.78205 -78.61683 32099 ft 457 kts 355°
2026-05-06 00:15 0.84516 -78.62504 32099 ft 458 kts 355°
2026-05-06 00:15 0.90843 -78.63323 32044 ft 458 kts 355°
2026-05-06 00:16 0.97124 -78.64142 32047 ft 458 kts 355°
2026-05-06 00:16 1.03453 -78.64970 32049 ft 459 kts 355°
2026-05-06 00:17 1.09780 -78.65798 32014 ft 459 kts 355°
2026-05-06 00:17 1.16115 -78.66623 32019 ft 459 kts 355°
2026-05-06 00:18 1.22409 -78.67444 31987 ft 459 kts 355°
2026-05-06 00:18 1.28742 -78.68272 31989 ft 459 kts 355°
2026-05-06 00:19 1.35070 -78.69094 31958 ft 459 kts 355°
2026-05-06 00:19 1.41420 -78.69881 31963 ft 462 kts 355°
2026-05-06 00:20 1.47868 -78.70658 31963 ft 472 kts 355°
2026-05-06 00:20 1.54445 -78.71457 31935 ft 480 kts 355°
2026-05-06 00:21 1.61052 -78.72277 31929 ft 482 kts 355°
2026-05-06 00:21 1.67721 -78.73108 31920 ft 483 kts 355°
2026-05-06 00:22 1.74388 -78.73933 31920 ft 483 kts 355°
2026-05-06 00:22 1.81057 -78.74758 31923 ft 483 kts 355°
2026-05-06 00:23 1.87732 -78.75561 31927 ft 483 kts 355°
2026-05-06 00:23 1.94369 -78.76306 31929 ft 483 kts 356°
2026-05-06 00:24 2.01040 -78.77057 31930 ft 483 kts 355°
2026-05-06 00:24 2.07721 -78.77823 31929 ft 483 kts 355°
2026-05-06 00:25 2.14389 -78.78588 31931 ft 483 kts 355°
2026-05-06 00:25 2.21058 -78.79360 31929 ft 482 kts 355°
2026-05-06 00:26 2.27679 -78.80122 31921 ft 482 kts 355°
2026-05-06 00:26 2.34346 -78.80892 31922 ft 482 kts 355°
2026-05-06 00:27 2.41011 -78.81657 31926 ft 482 kts 355°
2026-05-06 00:27 2.47678 -78.82423 31926 ft 482 kts 355°
2026-05-06 00:28 2.54352 -78.83199 31930 ft 483 kts 355°
2026-05-06 00:28 2.61022 -78.83970 31929 ft 483 kts 355°
2026-05-06 00:29 2.67652 -78.84735 31936 ft 482 kts 355°
2026-05-06 00:29 2.74313 -78.85500 31935 ft 482 kts 355°
2026-05-06 00:30 2.80981 -78.86267 31937 ft 482 kts 355°
2026-05-06 00:30 2.87641 -78.87026 31934 ft 482 kts 355°
2026-05-06 00:31 2.94301 -78.87794 31932 ft 482 kts 355°
2026-05-06 00:31 3.00964 -78.88569 31936 ft 482 kts 355°
2026-05-06 00:32 3.07575 -78.89338 31937 ft 482 kts 355°
2026-05-06 00:32 3.14230 -78.90101 31935 ft 481 kts 355°
2026-05-06 00:33 3.20883 -78.90866 31932 ft 481 kts 355°
2026-05-06 00:33 3.27525 -78.91628 31930 ft 481 kts 355°
2026-05-06 00:34 3.34174 -78.92390 31928 ft 481 kts 355°
2026-05-06 00:34 3.40827 -78.93165 31929 ft 481 kts 355°
2026-05-06 00:35 3.47437 -78.93937 31932 ft 481 kts 355°
2026-05-06 00:35 3.54090 -78.94698 31934 ft 482 kts 355°
2026-05-06 00:36 3.60744 -78.95464 31936 ft 482 kts 355°
2026-05-06 00:36 3.67407 -78.96235 31936 ft 482 kts 355°
2026-05-06 00:37 3.74064 -78.97004 31941 ft 482 kts 355°
2026-05-06 00:37 3.80718 -78.97775 31934 ft 481 kts 355°
2026-05-06 00:38 3.87374 -78.98538 31930 ft 481 kts 355°
2026-05-06 00:38 3.93979 -78.99303 31927 ft 481 kts 355°
2026-05-06 00:39 4.00640 -79.00075 31926 ft 481 kts 355°
2026-05-06 00:39 4.07290 -79.00844 31925 ft 481 kts 355°
2026-05-06 00:40 4.13943 -79.01615 31924 ft 481 kts 355°
2026-05-06 00:40 4.20603 -79.02385 31923 ft 482 kts 355°
2026-05-06 00:41 4.27260 -79.03147 31923 ft 482 kts 355°
2026-05-06 00:41 4.33923 -79.03918 31926 ft 482 kts 355°
2026-05-06 00:42 4.40546 -79.04689 31927 ft 482 kts 355°
2026-05-06 00:42 4.47212 -79.05462 31928 ft 482 kts 355°
2026-05-06 00:43 4.53877 -79.06228 31928 ft 482 kts 355°
2026-05-06 00:43 4.60545 -79.06999 31928 ft 482 kts 355°
2026-05-06 00:44 4.67214 -79.07775 31931 ft 482 kts 355°
2026-05-06 00:44 4.73836 -79.08543 31930 ft 482 kts 355°
2026-05-06 00:45 4.80501 -79.09314 31926 ft 482 kts 355°
2026-05-06 00:45 4.87169 -79.10094 31923 ft 482 kts 355°
2026-05-06 00:46 4.93838 -79.10860 31920 ft 483 kts 355°
2026-05-06 00:46 5.00512 -79.11628 31918 ft 483 kts 355°
2026-05-06 00:47 5.07187 -79.12398 31917 ft 483 kts 355°
2026-05-06 00:47 5.13817 -79.13164 31914 ft 483 kts 355°
2026-05-06 00:48 5.20488 -79.13942 31915 ft 483 kts 355°
2026-05-06 00:48 5.27176 -79.14724 31915 ft 483 kts 355°
2026-05-06 00:49 5.33847 -79.15497 31920 ft 483 kts 355°
2026-05-06 00:49 5.40517 -79.16268 31917 ft 482 kts 355°
2026-05-06 00:50 5.47133 -79.17030 31920 ft 482 kts 355°
2026-05-06 00:50 5.53807 -79.17801 31914 ft 482 kts 355°
2026-05-06 00:51 5.60473 -79.18574 31916 ft 482 kts 355°
2026-05-06 00:51 5.67135 -79.19350 31918 ft 482 kts 355°
2026-05-06 00:52 5.73792 -79.20131 31921 ft 481 kts 355°
2026-05-06 00:52 5.80445 -79.20907 31922 ft 481 kts 355°
2026-05-06 00:53 5.87054 -79.21666 31922 ft 481 kts 355°
2026-05-06 00:53 5.93681 -79.22432 31922 ft 481 kts 355°
2026-05-06 00:54 6.00335 -79.23223 31923 ft 481 kts 354°
2026-05-06 00:54 6.06981 -79.24020 31926 ft 481 kts 354°
2026-05-06 00:55 6.13627 -79.24814 31929 ft 481 kts 354°
2026-05-06 00:55 6.20272 -79.25602 31929 ft 481 kts 354°
2026-05-06 00:56 6.26867 -79.26382 31930 ft 481 kts 354°
2026-05-06 00:56 6.33506 -79.27165 31923 ft 480 kts 354°
2026-05-06 00:57 6.40146 -79.27952 31927 ft 480 kts 354°
2026-05-06 00:57 6.46785 -79.28744 31923 ft 480 kts 354°
2026-05-06 00:58 6.53420 -79.29534 31921 ft 480 kts 354°
2026-05-06 00:58 6.60006 -79.30317 31917 ft 480 kts 354°
2026-05-06 00:59 6.66631 -79.31106 31915 ft 480 kts 354°
2026-05-06 00:59 6.73266 -79.31893 31916 ft 480 kts 354°
2026-05-06 01:00 6.79890 -79.32686 31918 ft 480 kts 354°
2026-05-06 01:00 6.86517 -79.33477 31922 ft 479 kts 354°
2026-05-06 01:01 6.93142 -79.34261 31921 ft 479 kts 354°
2026-05-06 01:01 6.99723 -79.35040 31919 ft 479 kts 354°
2026-05-06 01:02 7.06344 -79.35834 31917 ft 479 kts 354°
2026-05-06 01:02 7.12965 -79.36619 31915 ft 479 kts 354°
2026-05-06 01:03 7.19577 -79.37402 31917 ft 479 kts 354°
2026-05-06 01:03 7.26203 -79.38195 31917 ft 479 kts 354°
2026-05-06 01:04 7.32824 -79.38990 31914 ft 479 kts 354°
2026-05-06 01:04 7.39453 -79.39767 31916 ft 479 kts 354°
2026-05-06 01:05 7.46026 -79.40536 31923 ft 479 kts 354°
2026-05-06 01:05 7.52654 -79.41317 31921 ft 479 kts 354°
2026-05-06 01:06 7.59274 -79.42101 31924 ft 479 kts 354°
2026-05-06 01:06 7.65895 -79.42877 31925 ft 479 kts 354°
2026-05-06 01:07 7.72519 -79.43651 31922 ft 479 kts 354°
2026-05-06 01:07 7.79141 -79.44435 31922 ft 479 kts 354°
2026-05-06 01:08 7.85719 -79.45213 31922 ft 479 kts 354°
2026-05-06 01:08 7.92344 -79.45993 31927 ft 479 kts 354°
2026-05-06 01:09 7.98970 -79.46770 31928 ft 479 kts 354°
2026-05-06 01:09 8.05598 -79.47552 31929 ft 479 kts 354°
2026-05-06 01:10 8.12218 -79.48331 31928 ft 479 kts 354°
2026-05-06 01:10 8.18848 -79.49120 31928 ft 479 kts 354°
2026-05-06 01:11 8.25469 -79.49906 31927 ft 479 kts 354°
2026-05-06 01:11 8.32049 -79.50676 31926 ft 479 kts 354°
2026-05-06 01:12 8.38669 -79.51451 31922 ft 479 kts 354°
2026-05-06 01:12 8.45283 -79.52240 31919 ft 479 kts 354°
2026-05-06 01:13 8.51907 -79.53033 31921 ft 479 kts 354°
2026-05-06 01:13 8.58524 -79.53819 31919 ft 479 kts 354°
2026-05-06 01:14 8.68451 -79.54989 31913 ft 479 kts 354°
2026-05-06 01:14 8.74931 -79.56249 31913 ft 480 kts 339°
2026-05-06 01:15 8.77916 -79.57751 31911 ft 480 kts 327°
2026-05-06 01:15 8.80534 -79.59850 31902 ft 481 kts 315°
2026-05-06 01:15 8.82678 -79.62451 31900 ft 482 kts 304°
2026-05-06 01:15 8.84480 -79.65307 31902 ft 483 kts 303°
2026-05-06 01:16 8.88092 -79.71046 31908 ft 483 kts 303°
2026-05-06 01:16 8.91707 -79.76780 31913 ft 484 kts 303°
2026-05-06 01:17 8.95322 -79.82523 31916 ft 484 kts 303°
2026-05-06 01:17 8.98905 -79.88221 31926 ft 483 kts 303°
2026-05-06 01:18 9.02516 -79.93957 31932 ft 483 kts 303°
2026-05-06 01:18 9.06117 -79.99696 31936 ft 483 kts 303°
2026-05-06 01:19 9.09715 -80.05434 31939 ft 483 kts 303°
2026-05-06 01:19 9.13312 -80.11156 31936 ft 482 kts 303°
2026-05-06 01:20 9.16889 -80.16850 31937 ft 482 kts 303°
2026-05-06 01:20 9.20481 -80.22589 31930 ft 483 kts 303°
2026-05-06 01:21 9.24076 -80.28337 31926 ft 483 kts 303°
2026-05-06 01:21 9.27685 -80.34082 31932 ft 484 kts 303°
2026-05-06 01:22 9.31287 -80.39834 31941 ft 484 kts 303°
2026-05-06 01:22 9.34868 -80.45551 31935 ft 484 kts 303°
2026-05-06 01:23 9.38470 -80.51304 31939 ft 484 kts 303°
2026-05-06 01:23 9.42067 -80.57061 31937 ft 484 kts 303°
2026-05-06 01:24 9.45663 -80.62827 31938 ft 484 kts 303°
2026-05-06 01:24 9.49266 -80.68598 31936 ft 485 kts 303°
2026-05-06 01:25 9.52871 -80.74360 31938 ft 485 kts 303°
2026-05-06 01:25 9.56738 -80.79875 31934 ft 483 kts 315°
2026-05-06 01:26 9.62102 -80.83873 31935 ft 479 kts 336°
2026-05-06 01:26 9.68451 -80.85749 31931 ft 476 kts 353°
2026-05-06 01:27 9.75018 -80.86667 31923 ft 477 kts 353°
2026-05-06 01:27 9.81605 -80.87591 31920 ft 477 kts 352°
2026-05-06 01:28 9.88181 -80.88513 31923 ft 478 kts 353°
2026-05-06 01:28 9.94775 -80.89429 31925 ft 478 kts 353°
2026-05-06 01:29 10.01320 -80.90340 31924 ft 478 kts 352°
2026-05-06 01:29 10.07866 -80.91261 31934 ft 464 kts 353°
2026-05-06 01:30 10.14165 -80.92152 31942 ft 454 kts 353°
2026-05-06 01:30 10.20410 -80.93023 31942 ft 452 kts 353°
2026-05-06 01:31 10.26641 -80.93892 31939 ft 452 kts 353°
2026-05-06 01:31 10.32874 -80.94776 31939 ft 452 kts 353°
2026-05-06 01:32 10.39071 -80.95648 31941 ft 452 kts 353°
2026-05-06 01:32 10.45302 -80.96514 31941 ft 452 kts 353°
2026-05-06 01:33 10.51540 -80.97383 31615 ft 451 kts 352°
2026-05-06 01:33 10.54650 -80.97818 31378 ft 452 kts 352°
2026-05-06 01:33 10.57758 -80.98255 31141 ft 450 kts 353°
2026-05-06 01:34 10.59813 -80.98545 30994 ft 449 kts 353°
2026-05-06 01:34 10.62904 -80.98982 30763 ft 448 kts 353°
2026-05-06 01:34 10.65995 -80.99418 30528 ft 446 kts 353°
2026-05-06 01:34 10.69063 -80.99850 30306 ft 446 kts 353°
2026-05-06 01:35 10.72131 -81.00283 30088 ft 443 kts 353°
2026-05-06 01:35 10.75181 -81.00715 29829 ft 442 kts 353°
2026-05-06 01:35 10.78219 -81.01146 29561 ft 440 kts 353°
2026-05-06 01:35 10.81244 -81.01578 29301 ft 438 kts 353°
2026-05-06 01:36 10.84262 -81.02008 29040 ft 437 kts 353°
2026-05-06 01:36 10.87268 -81.02433 28783 ft 435 kts 353°
2026-05-06 01:36 10.90266 -81.02852 28526 ft 434 kts 353°
2026-05-06 01:36 10.93251 -81.03268 28278 ft 432 kts 353°
2026-05-06 01:37 10.96187 -81.03679 28024 ft 431 kts 353°
2026-05-06 01:37 10.99150 -81.04094 27776 ft 429 kts 353°
2026-05-06 01:37 11.02103 -81.04507 27530 ft 428 kts 353°
2026-05-06 01:37 11.05050 -81.04922 27284 ft 426 kts 353°
2026-05-06 01:38 11.07978 -81.05337 27043 ft 425 kts 353°
2026-05-06 01:38 11.10900 -81.05754 26803 ft 423 kts 353°
2026-05-06 01:38 11.13813 -81.06166 26565 ft 422 kts 354°
2026-05-06 01:38 11.16717 -81.06572 26333 ft 420 kts 354°
2026-05-06 01:39 11.19610 -81.06978 26096 ft 419 kts 354°
2026-05-06 01:39 11.22491 -81.07384 25866 ft 417 kts 354°
2026-05-06 01:39 11.25360 -81.07788 25634 ft 416 kts 354°
2026-05-06 01:39 11.28182 -81.08189 25405 ft 414 kts 354°
2026-05-06 01:40 11.31030 -81.08595 25179 ft 413 kts 354°
2026-05-06 01:40 11.33866 -81.08999 24956 ft 412 kts 354°
2026-05-06 01:40 11.36704 -81.09401 24731 ft 410 kts 354°
2026-05-06 01:40 11.39525 -81.09800 24510 ft 409 kts 354°
2026-05-06 01:41 11.42338 -81.10199 24295 ft 408 kts 354°
2026-05-06 01:41 11.45141 -81.10593 24076 ft 406 kts 354°
2026-05-06 01:41 11.47939 -81.10985 23859 ft 404 kts 354°
2026-05-06 01:41 11.50700 -81.11375 23519 ft 398 kts 354°
2026-05-06 01:42 11.53427 -81.11815 23019 ft 396 kts 349°
2026-05-06 01:42 11.56034 -81.12691 22582 ft 394 kts 338°
2026-05-06 01:42 11.58419 -81.14054 22137 ft 393 kts 327°
2026-05-06 01:42 11.60565 -81.15774 21690 ft 390 kts 323°
2026-05-06 01:43 11.62637 -81.17481 21264 ft 387 kts 323°
2026-05-06 01:43 11.64727 -81.19196 20809 ft 384 kts 323°
2026-05-06 01:43 11.66808 -81.20900 20369 ft 382 kts 323°
2026-05-06 01:43 11.68876 -81.22592 19909 ft 380 kts 323°
2026-05-06 01:44 11.70940 -81.24278 19442 ft 379 kts 323°
2026-05-06 01:44 11.72993 -81.25956 18990 ft 378 kts 323°
2026-05-06 01:44 11.75045 -81.27634 18520 ft 378 kts 323°
2026-05-06 01:44 11.77092 -81.29310 18042 ft 377 kts 323°
2026-05-06 01:45 11.79150 -81.30995 17321 ft 382 kts 323°
2026-05-06 01:45 11.81194 -81.32672 17133 ft 371 kts 323°
2026-05-06 01:45 11.83197 -81.34315 16713 ft 368 kts 323°
2026-05-06 01:45 11.85161 -81.35925 16274 ft 366 kts 323°
2026-05-06 01:46 11.87140 -81.37548 15831 ft 364 kts 323°
2026-05-06 01:46 11.89108 -81.39162 15395 ft 362 kts 323°
2026-05-06 01:46 11.91069 -81.40771 14959 ft 361 kts 323°
2026-05-06 01:46 11.93024 -81.42376 14523 ft 360 kts 323°
2026-05-06 01:47 11.94971 -81.43975 14086 ft 359 kts 323°
2026-05-06 01:47 11.96911 -81.45568 13640 ft 358 kts 323°
2026-05-06 01:47 11.98854 -81.47163 13155 ft 357 kts 323°
2026-05-06 01:47 12.00764 -81.48731 12715 ft 347 kts 323°
2026-05-06 01:48 12.02616 -81.50253 12293 ft 337 kts 323°
2026-05-06 01:48 12.04397 -81.51715 11853 ft 329 kts 323°
2026-05-06 01:48 12.06179 -81.53178 11445 ft 329 kts 324°
2026-05-06 01:48 12.07958 -81.54640 11020 ft 329 kts 323°
2026-05-06 01:49 12.09741 -81.56107 10586 ft 329 kts 323°
2026-05-06 01:49 12.11503 -81.57556 10322 ft 319 kts 323°
2026-05-06 01:49 12.13200 -81.58955 9978 ft 309 kts 323°
2026-05-06 01:49 12.14851 -81.60317 9845 ft 304 kts 323°
2026-05-06 01:50 12.16498 -81.61671 9726 ft 305 kts 323°
2026-05-06 01:50 12.18152 -81.63026 9396 ft 305 kts 324°
2026-05-06 01:50 12.19808 -81.64385 8957 ft 304 kts 324°
2026-05-06 01:50 12.21442 -81.65730 8504 ft 298 kts 323°
2026-05-06 01:51 12.23064 -81.67068 8057 ft 296 kts 324°
2026-05-06 01:51 12.24664 -81.68387 7621 ft 294 kts 323°
2026-05-06 01:51 12.26239 -81.69688 7166 ft 288 kts 323°
2026-05-06 01:51 12.27793 -81.70971 6733 ft 287 kts 323°
2026-05-06 01:52 12.29342 -81.72245 6300 ft 284 kts 324°
2026-05-06 01:52 12.30860 -81.73494 5860 ft 284 kts 324°
2026-05-06 01:52 12.32420 -81.74775 5427 ft 284 kts 323°
2026-05-06 01:52 12.33921 -81.76014 5007 ft 278 kts 323°
2026-05-06 01:53 12.35421 -81.77253 4585 ft 277 kts 324°
2026-05-06 01:53 12.36920 -81.78487 4170 ft 275 kts 324°
2026-05-06 01:53 12.38362 -81.79678 3935 ft 256 kts 324°
2026-05-06 01:53 12.39689 -81.80781 3992 ft 240 kts 324°
2026-05-06 01:54 12.41030 -81.81820 4050 ft 242 kts 332°
2026-05-06 01:54 12.42486 -81.82680 3814 ft 241 kts 333°
2026-05-06 01:54 12.43929 -81.83536 3637 ft 239 kts 333°
2026-05-06 01:54 12.45366 -81.84390 3441 ft 238 kts 333°
2026-05-06 01:55 12.46777 -81.85231 3272 ft 228 kts 333°
2026-05-06 01:55 12.48172 -81.85887 3097 ft 216 kts 354°
2026-05-06 01:55 12.49597 -81.85686 2944 ft 208 kts 29°
2026-05-06 01:55 12.50584 -81.84695 2699 ft 202 kts 61°
2026-05-06 01:56 12.51246 -81.83453 2469 ft 193 kts 61°
2026-05-06 01:56 12.51891 -81.82328 2235 ft 176 kts 60°
2026-05-06 01:56 12.52494 -81.81297 2025 ft 162 kts 59°
2026-05-06 01:56 12.53058 -81.80327 1807 ft 156 kts 61°
2026-05-06 01:57 12.53605 -81.79386 1587 ft 152 kts 60°
2026-05-06 01:57 12.54139 -81.78457 1385 ft 152 kts 60°
2026-05-06 01:57 12.54681 -81.77530 1245 ft 152 kts 59°
2026-05-06 01:57 12.55221 -81.76609 1099 ft 150 kts 60°
2026-05-06 01:58 12.55738 -81.75693 861 ft 150 kts 60°
2026-05-06 01:58 12.56255 -81.74763 644 ft 151 kts 60°
2026-05-06 01:58 12.56791 -81.73821 451 ft 150 kts 59°
2026-05-06 01:58 12.57341 -81.72896 250 ft 149 kts 56°
2026-05-06 01:59 12.57860 -81.71976 120 ft 150 kts 60°
2026-05-06 01:59 12.58370 -81.71097 53 ft 130 kts 60°
2026-05-06 01:59 12.58675 -81.70578 39 ft 32 kts 59°
2026-05-06 01:59 12.58730 -81.70430 33 ft 18 kts 108°
2026-05-06 02:00 12.58722 -81.70399 34 ft 0 kts 109°
2026-05-06 02:00 12.58721 -81.70399 34 ft 1 kts 109°
2026-05-06 02:00 12.58699 -81.70347 33 ft 12 kts 125°
2026-05-06 02:00 12.58637 -81.70303 33 ft 4 kts 150°